Regional Weather Roundup
Issued by NWS Kansas City/Pleasant Hill, MO

Home | Current Version | Previous Version | Text Only | Print | Product List | Glossary On
Versions: 1 2 3 4 5 6 7 8 9 10 11 12 13 14 15 16 17 18 19 20 21 22 23 24 25 26 27
000
ASUS43 KEAX 290010
RWREAX

WEATHER ROUNDUP FOR EASTERN KANSAS AND NORTHWEST MISSOURI
NATIONAL WEATHER SERVICE KANSAS CITY/PLEASANT HILL MO
700 PM CDT FRI APR 28 2017

KSZ040-057-103>105-MOZ028-029-037-043-290100-
...KANSAS CITY METROPOLITAN AREA...

CITY           SKY/WX    TMP DP  RH WIND       PRES   REMARKS
K.C. INTL      CLOUDY    49  48  97 N13       29.78R
6HR MIN TEMP:  49; 6HR MAX TEMP:  58; 6HR PCP:  0.02;

K.C. DOWNTOWN  CLOUDY    55  52  89 N13       29.77R
6HR MIN TEMP:  55; 6HR MAX TEMP:  66; 6HR PCP: TRACE;

LEES SUMMIT    MOSUNNY   59  57  93 N12       29.77R
6HR MIN TEMP:  60; 6HR MAX TEMP:  64; 6HR PCP: TRACE;

OLATHE - IXD   CLOUDY    64  57  78 E8        29.76R
6HR MIN TEMP:  58; 6HR MAX TEMP:  66;

OLATHE - OJC   CLOUDY    63  58  83 E5        29.76R
6HR MIN TEMP:  57; 6HR MAX TEMP:  65;

LAWRENCE       CLOUDY    54  53  97 N13       29.79R

$$

MOZ001>008-011>017-020>025-030>033-038>040-044>046-053-054-290100-
...NORTHERN AND CENTRAL MISSOURI...

CITY           SKY/WX    TMP DP  RH WIND       PRES   REMARKS
ST. JOSEPH     CLOUDY    46  45  96 N15       29.83R
6HR MIN TEMP:  46; 6HR MAX TEMP:  48; 6HR PCP:  0.02;

MOSBY          CLOUDY    50  48  93 N10       29.78R
WHITEMAN AFB   CLOUDY    61  61 100 S5        29.75R
6HR MIN TEMP:  60; 6HR MAX TEMP:  62;

CLINTON        CLOUDY    63  59  88 CALM      29.76S
SEDALIA        CLOUDY    61  61 100 E6        29.78R FOG
6HR MIN TEMP:  60; 6HR MAX TEMP:  63;

WARSAW         NOT AVBL
CHILLICOTHE      N/A     47  45  93 N8        29.82R
6HR MIN TEMP:  47; 6HR MAX TEMP:  53;

KIRKSVILLE     CLOUDY    48  31  51 N13       29.84R HAZE
6HR MIN TEMP:  48; 6HR MAX TEMP:  51;


$$

MOZ041-047>049-056>058-063>065-088>090-097-290100-
...EASTERN AND SOUTHERN MISSOURI...

CITY           SKY/WX    TMP DP  RH WIND       PRES   REMARKS
ST. LOUIS INTL NOT AVBL
SPIRIT OF STL  CLOUDY    59  57  93 E3        29.79R
COLUMBIA       CLOUDY    59  58  96 SE6       29.79R
JEFFERSON CITY CLOUDY    61  58  90 SE6       29.79R
ROLLA          CLOUDY    60  60 100 CALM      29.78R
OSAGE BEACH    CLOUDY    62  61  96 CALM      29.78R
SPRINGFIELD    CLOUDY    64  61  90 SE7       29.75S
BRANSON        CLOUDY    64  64 100 CALM      29.77R FOG
JOPLIN         MOSUNNY   69  62  78 VRB5      29.73R
WEST PLAINS    CLOUDY    65  63  93 S3        29.79R

$$

IAZ060-094-KSZ022-034>040-054-083-096-NEZ052-066-093-290100-
...KANSAS...SOUTHEAST NEBRASKA AND IOWA...

CITY           SKY/WX    TMP DP  RH WIND       PRES   REMARKS
TOPEKA         CLOUDY    50  49  96 N9        29.81R
6HR MIN TEMP:  50; 6HR MAX TEMP:  69;

MANHATTAN      CLOUDY    49  45  86 N10G21    29.82R
EMPORIA        SUNNY     62  57  83 N13       29.75R
CHANUTE        SUNNY     68  56  65 SE5       29.73R
WICHITA        MOSUNNY   69  46  43 N10       29.72R
OMAHA          DRIZZLE   42  38  85 N13       29.94R FOG
LINCOLN        CLOUDY    41  39  93 N16       29.94R WCI  33
FALLS CITY     CLOUDY    44  42  93 NE13      29.85R
LAMONI         CLOUDY    42  40  92 NE17G28   29.84S WCI  34
DES MOINES     CLOUDY    45  40  82 NE10      29.91S

$$





USA.gov is the U.S. government's official web portal to all federal, state and local government web resources and services.